When you browse on this site, cookies collect data to enhance your experience and personalize the content and advertising you see.
Visit our Privacy Policy to learn more. By continuing to use the site, you agree to this use of cookies and data.
  • In Hungary
  • List of Countries
  • For 7 days
  • Water Temperature
  • Weather Map
  • News
  • Weather Widgets
  • user-avatar
    Login

    Hourly Weather Ames

    Today, 9 December, Monday

    Time Temperature Precipitation Wind Pressure Humidity
    00:00 +7°C° 0 mm 1 mps 756 mmHg 97%
    01:00 +7°C° 0 mm 1 mps 756 mmHg 97%
    02:00 +7°C° 0 mm 1 mps 756 mmHg 97%
    03:00 +8°C° 0 mm 1 mps 756 mmHg 96%
    04:00 +8°C° 0 mm 1 mps 756 mmHg 96%
    05:00 +9°C° 0 mm 1 mps 757 mmHg 96%
    06:00 +9°C° 0 mm 1 mps 757 mmHg 95%
    07:00 +10°C° 0 mm 1 mps 757 mmHg 94%
    08:00 +9°C° 0 mm 0 mps 757 mmHg 94%
    09:00 +10°C° 0 mm 0 mps 757 mmHg 90%
    10:00 +11°C° 0 mm 0 mps 757 mmHg 87%
    11:00 +12°C° 0 mm 0 mps 758 mmHg 84%
    12:00 +12°C° 0 mm 0 mps 757 mmHg 83%
    13:00 +12°C° 0 mm 0 mps 757 mmHg 82%
    14:00 +12°C° 0 mm 0 mps 757 mmHg 81%
    15:00 +11°C° 0 mm 0 mps 757 mmHg 86%
    16:00 +9°C° 0 mm 0 mps 757 mmHg 91%
    17:00 +8°C° 0 mm 0 mps 757 mmHg 96%
    18:00 +8°C° 0 mm 0 mps 757 mmHg 96%
    19:00 +7°C° 0 mm 0 mps 757 mmHg 96%
    20:00 +8°C° 0 mm 1 mps 757 mmHg 97%
    21:00 +8°C° 0 mm 1 mps 757 mmHg 95%
    22:00 +7°C° 0 mm 0 mps 756 mmHg 94%
    23:00 +7°C° 0 mm 0 mps 756 mmHg 93%

    Tomorrow, 10 December, Tuesday

    Time Temperature Precipitation Wind Pressure Humidity
    00:00 +8°C° 0 mm 1 mps 756 mmHg 92%
    01:00 +7°C° 0 mm 1 mps 755 mmHg 91%
    02:00 +7°C° 0 mm 1 mps 755 mmHg 90%
    03:00 +7°C° 0 mm 1 mps 754 mmHg 88%
    04:00 +7°C° 0 mm 1 mps 754 mmHg 86%
    05:00 +7°C° 0 mm 1 mps 754 mmHg 84%
    06:00 +8°C° 0 mm 1 mps 754 mmHg 81%
    07:00 +8°C° 0 mm 1 mps 754 mmHg 79%
    08:00 +8°C° 0 mm 1 mps 753 mmHg 77%
    09:00 +9°C° 0 mm 2 mps 753 mmHg 73%
    10:00 +10°C° 0 mm 2 mps 753 mmHg 69%
    11:00 +12°C° 0 mm 3 mps 753 mmHg 65%
    12:00 +11°C° 0 mm 3 mps 752 mmHg 67%
    13:00 +11°C° 0 mm 3 mps 751 mmHg 69%
    14:00 +11°C° 0 mm 3 mps 750 mmHg 71%
    15:00 +11°C° 0.4 mm 3 mps 750 mmHg 77%
    16:00 +10°C° 0.4 mm 3 mps 750 mmHg 84%
    17:00 +9°C° 0.4 mm 3 mps 750 mmHg 90%
    18:00 +10°C° 0.4 mm 3 mps 750 mmHg 91%
    19:00 +10°C° 0.4 mm 3 mps 750 mmHg 93%
    20:00 +10°C° 0.4 mm 3 mps 750 mmHg 94%
    21:00 +10°C° 2.9 mm 2 mps 750 mmHg 96%
    22:00 +10°C° 2.9 mm 2 mps 750 mmHg 97%
    23:00 +11°C° 2.9 mm 1 mps 750 mmHg 99%

    Day after tomorrow, 11 December, Wednesday

    Time Temperature Precipitation Wind Pressure Humidity
    00:00 +10°C° 0.6 mm 2 mps 751 mmHg 97%
    01:00 +9°C° 0.6 mm 2 mps 751 mmHg 96%
    02:00 +8°C° 0.6 mm 2 mps 751 mmHg 95%
    03:00 +8°C° 0 mm 2 mps 752 mmHg 94%
    04:00 +7°C° 0 mm 2 mps 752 mmHg 94%
    05:00 +6°C° 0 mm 2 mps 753 mmHg 93%
    06:00 +7°C° 0 mm 1 mps 753 mmHg 93%
    07:00 +7°C° 0 mm 1 mps 754 mmHg 93%
    08:00 +7°C° 0 mm 1 mps 755 mmHg 92%
    09:00 +7°C° 0 mm 2 mps 755 mmHg 88%
    10:00 +9°C° 0 mm 2 mps 755 mmHg 83%
    11:00 +10°C° 0 mm 3 mps 755 mmHg 78%
    12:00 +10°C° 0.2 mm 3 mps 755 mmHg 81%
    13:00 +10°C° 0.2 mm 3 mps 754 mmHg 83%
    14:00 +10°C° 0.2 mm 3 mps 754 mmHg 86%
    15:00 +9°C° 0.2 mm 2 mps 754 mmHg 88%
    16:00 +9°C° 0.2 mm 2 mps 754 mmHg 91%
    17:00 +8°C° 0.2 mm 2 mps 754 mmHg 93%
    18:00 +8°C° 0.1 mm 2 mps 754 mmHg 94%
    19:00 +8°C° 0.1 mm 1 mps 754 mmHg 95%
    20:00 +8°C° 0.1 mm 1 mps 754 mmHg 95%
    21:00 +7°C° 0.1 mm 2 mps 754 mmHg 95%
    22:00 +8°C° 0.1 mm 2 mps 754 mmHg 95%
    23:00 +8°C° 0.1 mm 2 mps 754 mmHg 95%

    12 December, Thursday

    Time Temperature Precipitation Wind Pressure Humidity
    00:00 +8°C° 0.1 mm 2 mps 753 mmHg 95%
    01:00 +8°C° 0.1 mm 2 mps 753 mmHg 95%
    02:00 +9°C° 0.1 mm 3 mps 752 mmHg 95%
    03:00 +9°C° 0.2 mm 3 mps 752 mmHg 95%
    04:00 +9°C° 0.2 mm 3 mps 752 mmHg 94%
    05:00 +9°C° 0.2 mm 3 mps 751 mmHg 94%
    06:00 +10°C° 0.2 mm 3 mps 751 mmHg 94%
    07:00 +10°C° 0.2 mm 4 mps 750 mmHg 93%
    08:00 +10°C° 0.2 mm 4 mps 750 mmHg 93%
    09:00 +10°C° 0.9 mm 4 mps 750 mmHg 94%
    10:00 +9°C° 0.9 mm 5 mps 749 mmHg 94%
    11:00 +10°C° 0.9 mm 5 mps 749 mmHg 95%
    12:00 +10°C° 3.3 mm 5 mps 748 mmHg 96%
    13:00 +10°C° 3.3 mm 5 mps 748 mmHg 96%
    14:00 +10°C° 3.3 mm 5 mps 747 mmHg 97%
    15:00 +10°C° 3.6 mm 5 mps 747 mmHg 97%
    16:00 +12°C° 3.6 mm 5 mps 747 mmHg 97%
    17:00 +12°C° 3.6 mm 5 mps 747 mmHg 97%
    18:00 +12°C° 0.9 mm 5 mps 747 mmHg 96%
    19:00 +12°C° 0.9 mm 5 mps 747 mmHg 95%
    20:00 +12°C° 0.9 mm 5 mps 747 mmHg 94%
    21:00 +12°C° 0.2 mm 5 mps 747 mmHg 94%
    22:00 +12°C° 0.2 mm 5 mps 747 mmHg 95%
    23:00 +12°C° 0.2 mm 5 mps 747 mmHg 95%

    13 December, Friday

    Time Temperature Precipitation Wind Pressure Humidity
    00:00 +12°C° 0.1 mm 5 mps 747 mmHg 94%
    01:00 +12°C° 0.1 mm 5 mps 747 mmHg 94%
    02:00 +13°C° 0.1 mm 5 mps 747 mmHg 93%
    03:00 +13°C° 0.2 mm 5 mps 747 mmHg 94%
    04:00 +13°C° 0.2 mm 5 mps 746 mmHg 94%
    05:00 +12°C° 0.2 mm 5 mps 746 mmHg 95%
    06:00 +13°C° 0.1 mm 5 mps 747 mmHg 95%
    07:00 +13°C° 0.1 mm 5 mps 747 mmHg 95%
    08:00 +13°C° 0.1 mm 4 mps 747 mmHg 95%
    09:00 +13°C° 0.2 mm 5 mps 747 mmHg 93%
    10:00 +13°C° 0.2 mm 5 mps 747 mmHg 92%
    11:00 +13°C° 0.2 mm 5 mps 747 mmHg 91%
    12:00 +13°C° 0.2 mm 5 mps 747 mmHg 91%
    13:00 +13°C° 0.2 mm 5 mps 747 mmHg 91%
    14:00 +13°C° 0.2 mm 5 mps 746 mmHg 92%
    15:00 +13°C° 0.1 mm 5 mps 746 mmHg 92%
    16:00 +13°C° 0.1 mm 5 mps 746 mmHg 92%
    17:00 +13°C° 0.1 mm 5 mps 746 mmHg 93%
    18:00 +12°C° 0.2 mm 5 mps 746 mmHg 93%
    19:00 +12°C° 0.2 mm 5 mps 746 mmHg 92%
    20:00 +12°C° 0.2 mm 4 mps 746 mmHg 92%
    21:00 +12°C° 0.1 mm 4 mps 746 mmHg 92%
    22:00 +12°C° 0.1 mm 4 mps 746 mmHg 92%
    23:00 +12°C° 0.1 mm 4 mps 746 mmHg 92%

    14 December, Saturday

    Time Temperature Precipitation Wind Pressure Humidity
    00:00 +12°C° 0.1 mm 4 mps 746 mmHg 92%
    01:00 +12°C° 0.1 mm 5 mps 746 mmHg 92%
    02:00 +12°C° 0.1 mm 5 mps 746 mmHg 91%
    03:00 +12°C° 0.1 mm 5 mps 745 mmHg 91%
    04:00 +12°C° 0.1 mm 5 mps 745 mmHg 91%
    05:00 +12°C° 0.1 mm 5 mps 745 mmHg 91%
    06:00 +12°C° 0.1 mm 5 mps 745 mmHg 90%
    07:00 +12°C° 0.1 mm 5 mps 745 mmHg 90%
    08:00 +12°C° 0.1 mm 4 mps 745 mmHg 89%
    09:00 +12°C° 0.2 mm 5 mps 745 mmHg 89%
    10:00 +12°C° 0.2 mm 5 mps 745 mmHg 89%
    11:00 +11°C° 0.2 mm 6 mps 745 mmHg 89%
    12:00 +13°C° 0.1 mm 6 mps 744 mmHg 87%
    13:00 +13°C° 0.1 mm 6 mps 744 mmHg 84%
    14:00 +13°C° 0.1 mm 6 mps 743 mmHg 82%
    15:00 +13°C° 0.2 mm 6 mps 743 mmHg 84%
    16:00 +11°C° 0.2 mm 6 mps 743 mmHg 85%
    17:00 +11°C° 0.2 mm 6 mps 742 mmHg 87%
    18:00 +11°C° 0.4 mm 6 mps 742 mmHg 88%
    19:00 +11°C° 0.4 mm 6 mps 742 mmHg 89%
    20:00 +11°C° 0.4 mm 6 mps 742 mmHg 90%
    21:00 +11°C° 0.4 mm 6 mps 741 mmHg 89%
    22:00 +11°C° 0.4 mm 6 mps 741 mmHg 88%
    23:00 +11°C° 0.4 mm 6 mps 740 mmHg 88%
    Show more